date,time,SUV Intensity [MED/Hr],UV Index,Daily total [MED],Since Last [MED]
01/07/2022,00:09:52,0.000,0.0,0.0,0.0
01/07/2022,00:10:52,0.001,0.0,0.0,0.0
01/07/2022,00:11:52,0.000,0.0,0.0,0.0
01/07/2022,00:12:53,-0.000,0.0,0.0,0.0
01/07/2022,00:13:52,0.000,0.0,0.0,0.0
01/07/2022,00:14:52,-0.002,0.0,0.0,0.0
01/07/2022,00:15:52,0.000,0.0,0.0,0.0
01/07/2022,00:17:01,-0.000,0.0,0.0,0.0
01/07/2022,00:17:52,0.001,0.0,0.0,0.0
01/07/2022,00:18:53,0.000,0.0,0.0,0.0
01/07/2022,00:20:01,0.001,0.0,0.0,0.0
01/07/2022,00:20:53,-0.000,0.0,0.0,0.0
01/07/2022,00:21:52,-0.001,0.0,0.0,0.0
01/07/2022,00:22:52,0.001,0.0,0.0,0.0
01/07/2022,00:23:52,-0.000,0.0,0.0,0.0
01/07/2022,00:24:52,-0.000,0.0,0.0,0.0
01/07/2022,00:25:52,0.001,0.0,0.0,0.0
01/07/2022,00:26:53,0.000,0.0,0.0,0.0
01/07/2022,00:27:52,0.000,0.0,0.0,0.0
01/07/2022,00:28:52,-0.000,0.0,0.0,0.0
01/07/2022,00:29:52,0.000,0.0,0.0,0.0
01/07/2022,00:30:52,-0.001,0.0,0.0,0.0
01/07/2022,00:31:52,-0.000,0.0,0.0,0.0
01/07/2022,00:33:01,0.000,0.0,0.0,0.0
01/07/2022,00:33:52,-0.000,0.0,0.0,0.0
01/07/2022,00:34:52,-0.000,0.0,0.0,0.0
01/07/2022,00:35:53,0.000,0.0,0.0,0.0
01/07/2022,00:36:53,-0.001,0.0,0.0,0.0
01/07/2022,00:37:52,0.001,0.0,0.0,0.0
01/07/2022,00:38:53,0.000,0.0,0.0,0.0
01/07/2022,00:39:52,-0.001,0.0,0.0,0.0
01/07/2022,00:40:52,0.000,0.0,0.0,0.0
01/07/2022,00:41:53,-0.001,0.0,0.0,0.0
01/07/2022,00:42:53,-0.000,0.0,0.0,0.0
01/07/2022,00:43:52,0.001,0.0,0.0,0.0
01/07/2022,00:44:52,-0.001,0.0,0.0,0.0
01/07/2022,00:45:52,-0.000,0.0,0.0,0.0
01/07/2022,00:46:52,0.001,0.0,0.0,0.0
01/07/2022,00:47:52,0.000,0.0,0.0,0.0
01/07/2022,00:48:53,-0.000,0.0,0.0,0.0
01/07/2022,00:49:52,-0.000,0.0,0.0,0.0
01/07/2022,00:50:52,-0.001,0.0,0.0,0.0
01/07/2022,00:51:52,-0.000,0.0,0.0,0.0
01/07/2022,00:52:53,-0.000,0.0,0.0,0.0
01/07/2022,00:53:52,0.000,0.0,0.0,0.0
01/07/2022,00:54:53,-0.000,0.0,0.0,0.0
01/07/2022,00:55:52,-0.001,0.0,0.0,0.0
01/07/2022,00:57:01,-0.000,0.0,0.0,0.0
01/07/2022,00:57:53,-0.000,0.0,0.0,0.0
01/07/2022,00:58:52,0.001,0.0,0.0,0.0
01/07/2022,00:59:52,0.000,0.0,0.0,0.0
01/07/2022,01:00:53,0.000,0.0,0.0,0.0
01/07/2022,01:01:52,-0.000,0.0,0.0,0.0
01/07/2022,01:02:53,0.001,0.0,0.0,0.0
01/07/2022,01:03:52,-0.000,0.0,0.0,0.0
01/07/2022,01:04:52,-0.000,0.0,0.0,0.0
01/07/2022,01:05:52,-0.001,0.0,0.0,0.0
01/07/2022,01:07:01,-0.000,0.0,0.0,0.0
01/07/2022,01:07:52,-0.001,0.0,0.0,0.0
01/07/2022,01:09:00,-0.000,0.0,0.0,0.0
01/07/2022,01:10:01,0.001,0.0,0.0,0.0
01/07/2022,01:10:52,-0.000,0.0,0.0,0.0
01/07/2022,01:11:52,0.000,0.0,0.0,0.0
01/07/2022,01:12:52,0.001,0.0,0.0,0.0
01/07/2022,01:13:52,-0.000,0.0,0.0,0.0
01/07/2022,01:14:52,0.001,0.0,0.0,0.0
01/07/2022,01:15:52,0.000,0.0,0.0,0.0
01/07/2022,01:16:53,-0.001,0.0,0.0,0.0
01/07/2022,01:17:52,-0.001,0.0,0.0,0.0
01/07/2022,01:18:53,-0.000,0.0,0.0,0.0
01/07/2022,01:19:53,0.001,0.0,0.0,0.0
01/07/2022,01:20:52,-0.000,0.0,0.0,0.0
01/07/2022,01:21:53,-0.000,0.0,0.0,0.0
01/07/2022,01:22:53,-0.000,0.0,0.0,0.0
01/07/2022,01:23:53,0.000,0.0,0.0,0.0
01/07/2022,01:24:52,0.001,0.0,0.0,0.0
01/07/2022,01:25:53,0.000,0.0,0.0,0.0
01/07/2022,01:26:53,-0.000,0.0,0.0,0.0
01/07/2022,01:27:52,-0.001,0.0,0.0,0.0
01/07/2022,01:28:52,-0.000,0.0,0.0,0.0
01/07/2022,01:29:53,-0.001,0.0,0.0,0.0
01/07/2022,01:30:52,-0.001,0.0,0.0,0.0
01/07/2022,01:31:52,-0.000,0.0,0.0,0.0
01/07/2022,01:33:00,0.001,0.0,0.0,0.0
01/07/2022,01:33:52,-0.001,0.0,0.0,0.0
01/07/2022,01:34:53,-0.000,0.0,0.0,0.0
01/07/2022,01:35:53,-0.000,0.0,0.0,0.0
01/07/2022,01:36:52,-0.001,0.0,0.0,0.0
01/07/2022,01:37:52,0.000,0.0,0.0,0.0
01/07/2022,01:38:52,0.000,0.0,0.0,0.0
01/07/2022,01:39:52,0.001,0.0,0.0,0.0
01/07/2022,01:40:52,-0.000,0.0,0.0,0.0
01/07/2022,01:41:53,-0.001,0.0,0.0,0.0
01/07/2022,01:43:01,-0.001,0.0,0.0,0.0
01/07/2022,01:43:52,-0.001,0.0,0.0,0.0
01/07/2022,01:44:52,-0.000,0.0,0.0,0.0
01/07/2022,01:46:01,0.000,0.0,0.0,0.0
01/07/2022,01:46:53,-0.000,0.0,0.0,0.0
01/07/2022,01:47:53,-0.000,0.0,0.0,0.0
01/07/2022,01:48:52,-0.000,0.0,0.0,0.0
01/07/2022,01:49:52,0.001,0.0,0.0,0.0
01/07/2022,01:50:53,-0.001,0.0,0.0,0.0
01/07/2022,01:51:52,-0.000,0.0,0.0,0.0
01/07/2022,01:52:53,-0.000,0.0,0.0,0.0
01/07/2022,01:53:53,-0.000,0.0,0.0,0.0
01/07/2022,01:54:52,0.000,0.0,0.0,0.0
01/07/2022,01:56:01,-0.001,0.0,0.0,0.0
01/07/2022,01:56:53,-0.000,0.0,0.0,0.0
01/07/2022,01:57:53,-0.000,0.0,0.0,0.0
01/07/2022,01:59:00,-0.000,0.0,0.0,0.0
01/07/2022,01:59:52,0.001,0.0,0.0,0.0
01/07/2022,02:00:52,-0.001,0.0,0.0,0.0
01/07/2022,02:01:40,0.000,0.0,0.0,0.0
01/07/2022,02:02:53,-0.000,0.0,0.0,0.0
01/07/2022,02:03:52,0.001,0.0,0.0,0.0
01/07/2022,02:04:52,-0.000,0.0,0.0,0.0
01/07/2022,02:05:52,-0.000,0.0,0.0,0.0
01/07/2022,02:06:53,-0.000,0.0,0.0,0.0
01/07/2022,02:08:00,-0.001,0.0,0.0,0.0
01/07/2022,02:08:52,0.000,0.0,0.0,0.0
01/07/2022,02:10:01,0.000,0.0,0.0,0.0
01/07/2022,02:10:53,-0.002,0.0,0.0,0.0
01/07/2022,02:12:01,-0.002,0.0,0.0,0.0
01/07/2022,02:12:52,-0.000,0.0,0.0,0.0
01/07/2022,02:13:53,-0.000,0.0,0.0,0.0
01/07/2022,02:14:52,-0.000,0.0,0.0,0.0
01/07/2022,02:15:52,-0.000,0.0,0.0,0.0
01/07/2022,02:17:05,0.000,0.0,0.0,0.0
01/07/2022,02:18:53,-0.000,0.0,0.0,0.0
01/07/2022,02:19:52,0.000,0.0,0.0,0.0
01/07/2022,02:20:53,-0.000,0.0,0.0,0.0
01/07/2022,02:21:53,-0.000,0.0,0.0,0.0
01/07/2022,02:22:53,-0.001,0.0,0.0,0.0
01/07/2022,02:23:53,0.000,0.0,0.0,0.0
01/07/2022,02:24:52,-0.000,0.0,0.0,0.0
01/07/2022,02:25:53,-0.001,0.0,0.0,0.0
01/07/2022,02:26:52,-0.001,0.0,0.0,0.0
01/07/2022,02:27:53,-0.000,0.0,0.0,0.0
01/07/2022,02:28:52,-0.000,0.0,0.0,0.0
01/07/2022,02:29:52,-0.001,0.0,0.0,0.0
01/07/2022,02:30:52,-0.000,0.0,0.0,0.0
01/07/2022,02:31:52,0.000,0.0,0.0,0.0
01/07/2022,02:33:01,-0.000,0.0,0.0,0.0
01/07/2022,02:33:52,0.000,0.0,0.0,0.0
01/07/2022,02:34:53,0.001,0.0,0.0,0.0
01/07/2022,02:36:00,-0.000,0.0,0.0,0.0
01/07/2022,02:37:53,-0.001,0.0,0.0,0.0
01/07/2022,02:38:52,-0.000,0.0,0.0,0.0
01/07/2022,02:39:52,-0.000,0.0,0.0,0.0
01/07/2022,02:40:52,-0.001,0.0,0.0,0.0
01/07/2022,02:41:53,-0.000,0.0,0.0,0.0
01/07/2022,02:42:53,0.000,0.0,0.0,0.0
01/07/2022,02:43:52,0.000,0.0,0.0,0.0
01/07/2022,02:44:52,-0.000,0.0,0.0,0.0
01/07/2022,02:45:52,-0.001,0.0,0.0,0.0
01/07/2022,02:46:53,-0.000,0.0,0.0,0.0
01/07/2022,02:47:53,-0.001,0.0,0.0,0.0
01/07/2022,02:49:00,0.000,0.0,0.0,0.0
01/07/2022,02:49:53,-0.001,0.0,0.0,0.0
01/07/2022,02:50:52,0.001,0.0,0.0,0.0
01/07/2022,02:51:53,-0.000,0.0,0.0,0.0
01/07/2022,02:52:52,-0.000,0.0,0.0,0.0
01/07/2022,02:53:52,0.001,0.0,0.0,0.0
01/07/2022,02:54:52,0.000,0.0,0.0,0.0
01/07/2022,02:55:52,0.000,0.0,0.0,0.0
01/07/2022,02:56:53,-0.000,0.0,0.0,0.0
01/07/2022,02:57:52,-0.000,0.0,0.0,0.0
01/07/2022,02:59:01,-0.000,0.0,0.0,0.0
01/07/2022,02:59:52,-0.000,0.0,0.0,0.0
01/07/2022,03:00:53,-0.000,0.0,0.0,0.0
01/07/2022,03:01:52,-0.000,0.0,0.0,0.0
01/07/2022,03:02:53,-0.000,0.0,0.0,0.0
01/07/2022,03:03:53,0.000,0.0,0.0,0.0
01/07/2022,03:04:55,0.000,0.0,0.0,0.0
01/07/2022,03:05:52,-0.001,0.0,0.0,0.0
01/07/2022,03:06:53,-0.000,0.0,0.0,0.0
01/07/2022,03:07:53,-0.001,0.0,0.0,0.0
01/07/2022,03:08:52,0.000,0.0,0.0,0.0
01/07/2022,03:09:54,-0.001,0.0,0.0,0.0
01/07/2022,03:10:52,0.000,0.0,0.0,0.0
01/07/2022,03:12:00,0.000,0.0,0.0,0.0
01/07/2022,03:12:52,0.001,0.0,0.0,0.0
01/07/2022,03:13:53,-0.000,0.0,0.0,0.0
01/07/2022,03:14:53,-0.000,0.0,0.0,0.0
01/07/2022,03:15:52,0.001,0.0,0.0,0.0
01/07/2022,03:16:53,0.000,0.0,0.0,0.0
01/07/2022,03:17:53,-0.000,0.0,0.0,0.0
01/07/2022,03:18:53,0.000,0.0,0.0,0.0
01/07/2022,03:19:52,-0.000,0.0,0.0,0.0
01/07/2022,03:20:54,0.000,0.0,0.0,0.0
01/07/2022,03:22:01,0.000,0.0,0.0,0.0
01/07/2022,03:22:52,-0.001,0.0,0.0,0.0
01/07/2022,03:23:52,0.000,0.0,0.0,0.0
01/07/2022,03:24:53,0.000,0.0,0.0,0.0
01/07/2022,03:25:52,-0.001,0.0,0.0,0.0
01/07/2022,03:26:53,-0.000,0.0,0.0,0.0
01/07/2022,03:27:53,0.000,0.0,0.0,0.0
01/07/2022,03:28:53,0.001,0.0,0.0,0.0
01/07/2022,03:29:52,-0.000,0.0,0.0,0.0
01/07/2022,03:30:53,0.000,0.0,0.0,0.0
01/07/2022,03:31:52,0.000,0.0,0.0,0.0
01/07/2022,03:32:53,-0.001,0.0,0.0,0.0
01/07/2022,03:33:53,0.001,0.0,0.0,0.0
01/07/2022,03:34:52,0.000,0.0,0.0,0.0
01/07/2022,03:35:53,0.000,0.0,0.0,0.0
01/07/2022,03:36:53,0.000,0.0,0.0,0.0
01/07/2022,03:37:52,0.000,0.0,0.0,0.0
01/07/2022,03:38:53,-0.001,0.0,0.0,0.0
01/07/2022,03:39:52,0.000,0.0,0.0,0.0
01/07/2022,03:40:52,-0.000,0.0,0.0,0.0
01/07/2022,03:41:53,-0.001,0.0,0.0,0.0
01/07/2022,03:42:52,0.000,0.0,0.0,0.0
01/07/2022,03:43:53,-0.000,0.0,0.0,0.0
01/07/2022,03:44:53,-0.001,0.0,0.0,0.0
01/07/2022,03:46:01,0.001,0.0,0.0,0.0
01/07/2022,03:46:53,0.000,0.0,0.0,0.0
01/07/2022,03:47:54,0.000,0.0,0.0,0.0
01/07/2022,03:49:01,0.001,0.0,0.0,0.0
01/07/2022,03:49:53,0.000,0.0,0.0,0.0
01/07/2022,03:50:52,0.001,0.0,0.0,0.0
01/07/2022,03:51:53,0.001,0.0,0.0,0.0
01/07/2022,03:52:52,-0.000,0.0,0.0,0.0
01/07/2022,03:53:52,0.001,0.0,0.0,0.0
01/07/2022,03:54:53,0.002,0.0,0.0,0.0
01/07/2022,03:55:52,0.001,0.0,0.0,0.0
01/07/2022,03:56:53,0.002,0.0,0.0,0.0
01/07/2022,03:57:53,0.002,0.0,0.0,0.0
01/07/2022,03:59:00,0.001,0.0,0.0,0.0
01/07/2022,03:59:53,0.002,0.0,0.0,0.0
01/07/2022,04:00:53,0.002,0.0,0.0,0.0
01/07/2022,04:01:52,0.001,0.0,0.0,0.0
01/07/2022,04:02:52,0.002,0.0,0.0,0.0
01/07/2022,04:03:52,0.002,0.0,0.0,0.0
01/07/2022,04:04:53,0.002,0.0,0.0,0.0
01/07/2022,04:05:52,0.003,0.0,0.0,0.0
01/07/2022,04:06:52,0.003,0.0,0.0,0.0
01/07/2022,04:07:53,0.003,0.0,0.0,0.0
01/07/2022,04:09:01,0.003,0.0,0.0,0.0
01/07/2022,04:09:52,0.003,0.0,0.0,0.0
01/07/2022,04:10:53,0.004,0.0,0.0,0.0
01/07/2022,04:12:01,0.004,0.0,0.0,0.0
01/07/2022,04:12:52,0.004,0.0,0.0,0.0
01/07/2022,04:13:52,0.004,0.0,0.0,0.0
01/07/2022,04:15:01,0.004,0.0,0.0,0.0
01/07/2022,04:15:53,0.005,0.0,0.0,0.0
01/07/2022,04:16:52,0.005,0.0,0.0,0.0
01/07/2022,04:18:01,0.006,0.0,0.0,0.0
01/07/2022,04:19:01,0.006,0.0,0.0,0.0
01/07/2022,04:19:53,0.007,0.0,0.0,0.0
01/07/2022,04:20:52,0.006,0.0,0.0,0.0
01/07/2022,04:21:53,0.006,0.0,0.0,0.0
01/07/2022,04:22:52,0.007,0.0,0.0,0.0
01/07/2022,04:23:53,0.007,0.0,0.0,0.0
01/07/2022,04:24:53,0.007,0.0,0.001,0.001
01/07/2022,04:26:01,0.008,0.0,0.001,0.0
01/07/2022,04:27:53,0.009,0.0,0.001,0.0
01/07/2022,04:28:52,0.008,0.0,0.001,0.0
01/07/2022,04:29:52,0.008,0.0,0.001,0.0
01/07/2022,04:30:53,0.009,0.0,0.001,0.0
01/07/2022,04:31:53,0.010,0.0,0.002,0.001
01/07/2022,04:32:53,0.010,0.0,0.002,0.0
01/07/2022,04:33:52,0.011,0.0,0.002,0.0
01/07/2022,04:34:52,0.011,0.0,0.002,0.0
01/07/2022,04:36:01,0.011,0.0,0.002,0.0
01/07/2022,04:36:52,0.012,0.0,0.002,0.0
01/07/2022,04:37:53,0.012,0.0,0.003,0.001
01/07/2022,04:38:53,0.012,0.0,0.003,0.0
01/07/2022,04:39:53,0.014,0.0,0.003,0.0
01/07/2022,04:40:53,0.014,0.0,0.003,0.0
01/07/2022,04:41:52,0.013,0.0,0.003,0.0
01/07/2022,04:42:53,0.014,0.0,0.004,0.001
01/07/2022,04:43:53,0.014,0.0,0.004,0.0
01/07/2022,04:44:53,0.015,0.0,0.004,0.0
01/07/2022,04:46:01,0.016,0.0,0.004,0.0
01/07/2022,04:46:53,0.016,0.0,0.005,0.001
01/07/2022,04:47:52,0.018,0.0,0.005,0.0
01/07/2022,04:49:02,0.018,0.0,0.005,0.0
01/07/2022,04:49:53,0.018,0.0,0.006,0.001
01/07/2022,04:50:53,0.019,0.0,0.006,0.0
01/07/2022,04:51:53,0.019,0.0,0.006,0.0
01/07/2022,04:52:53,0.020,0.0,0.007,0.001
01/07/2022,04:53:53,0.020,0.0,0.007,0.0
01/07/2022,04:54:52,0.020,0.0,0.007,0.0
01/07/2022,04:55:53,0.022,0.0,0.008,0.001
01/07/2022,04:56:53,0.023,0.0,0.008,0.0
01/07/2022,04:57:53,0.022,0.0,0.008,0.0
01/07/2022,04:59:01,0.023,0.0,0.009,0.001
01/07/2022,04:59:53,0.024,0.0,0.009,0.0
01/07/2022,05:00:52,0.025,0.0,0.009,0.0
01/07/2022,05:01:52,0.025,0.0,0.01,0.001
01/07/2022,05:03:09,0.025,0.0,0.01,0.0
01/07/2022,05:04:53,0.029,0.0,0.011,0.001
01/07/2022,05:05:52,0.029,0.0,0.012,0.001
01/07/2022,05:06:53,0.028,0.0,0.012,0.0
01/07/2022,05:07:53,0.030,0.0,0.013,0.001
01/07/2022,05:08:53,0.029,0.0,0.013,0.0
01/07/2022,05:09:52,0.031,0.0,0.014,0.001
01/07/2022,05:10:52,0.032,0.0,0.014,0.0
01/07/2022,05:12:01,0.033,0.0,0.015,0.001
01/07/2022,05:13:55,0.035,0.0,0.016,0.001
01/07/2022,05:15:01,0.035,0.0,0.016,0.0
01/07/2022,05:15:53,0.035,0.0,0.017,0.001
01/07/2022,05:16:53,0.034,0.0,0.018,0.001
01/07/2022,05:17:53,0.035,0.0,0.018,0.0
01/07/2022,05:18:52,0.035,0.0,0.019,0.001
01/07/2022,05:19:53,0.036,0.0,0.019,0.0
01/07/2022,05:20:53,0.039,0.0,0.02,0.001
01/07/2022,05:21:52,0.040,0.0,0.021,0.001
01/07/2022,05:22:53,0.040,0.0,0.021,0.0
01/07/2022,05:23:52,0.041,0.0,0.022,0.001
01/07/2022,05:24:53,0.044,0.0,0.023,0.001
01/07/2022,05:25:52,0.044,0.0,0.023,0.0
01/07/2022,05:26:53,0.045,0.0,0.024,0.001
01/07/2022,05:27:52,0.048,0.0,0.025,0.001
01/07/2022,05:28:52,0.049,0.0,0.026,0.001
01/07/2022,05:29:53,0.049,0.0,0.026,0.0
01/07/2022,05:30:53,0.049,0.0,0.027,0.001
01/07/2022,05:31:53,0.050,0.0,0.028,0.001
01/07/2022,05:32:52,0.053,0.0,0.029,0.001
01/07/2022,05:33:52,0.054,0.0,0.03,0.001
01/07/2022,05:34:53,0.056,0.0,0.031,0.001
01/07/2022,05:35:53,0.056,0.0,0.032,0.001
01/07/2022,05:36:53,0.059,0.0,0.033,0.001
01/07/2022,05:37:53,0.061,0.0,0.034,0.001
01/07/2022,05:38:53,0.064,0.0,0.035,0.001
01/07/2022,05:39:53,0.064,0.0,0.036,0.001
01/07/2022,05:40:52,0.067,0.0,0.037,0.001
01/07/2022,05:41:53,0.068,0.0,0.038,0.001
01/07/2022,05:42:53,0.068,0.0,0.039,0.001
01/07/2022,05:43:52,0.070,0.0,0.04,0.001
01/07/2022,05:44:53,0.070,0.0,0.041,0.001
01/07/2022,05:46:01,0.072,0.0,0.043,0.002
01/07/2022,05:46:52,0.074,0.0,0.044,0.001
01/07/2022,05:47:53,0.077,0.0,0.045,0.001
01/07/2022,05:48:53,0.079,0.0,0.046,0.001
01/07/2022,05:49:53,0.080,0.0,0.048,0.002
01/07/2022,05:50:52,0.087,0.0,0.049,0.001
01/07/2022,05:51:53,0.086,0.0,0.051,0.002
01/07/2022,05:52:52,0.089,0.0,0.052,0.001
01/07/2022,05:53:52,0.092,0.0,0.053,0.001
01/07/2022,05:54:53,0.091,0.0,0.055,0.002
01/07/2022,05:55:53,0.094,0.0,0.057,0.002
01/07/2022,05:56:52,0.089,0.0,0.058,0.001
01/07/2022,05:57:44,0.089,0.0,0.059,0.001
01/07/2022,05:58:53,0.091,0.0,0.061,0.002
01/07/2022,05:59:53,0.093,0.0,0.063,0.002
01/07/2022,06:00:53,0.097,0.0,0.064,0.001
01/07/2022,06:02:01,0.099,0.0,0.066,0.002
01/07/2022,06:02:53,0.105,0.0,0.067,0.001
01/07/2022,06:03:53,0.109,0.0,0.069,0.002
01/07/2022,06:05:01,0.112,0.0,0.071,0.002
01/07/2022,06:05:53,0.117,0.0,0.073,0.002
01/07/2022,06:06:52,0.121,0.0,0.075,0.002
01/07/2022,06:07:53,0.127,0.0,0.077,0.002
01/07/2022,06:08:53,0.123,0.0,0.079,0.002
01/07/2022,06:09:53,0.132,0.0,0.081,0.002
01/07/2022,06:10:53,0.135,0.0,0.083,0.002
01/07/2022,06:11:53,0.137,0.0,0.086,0.003
01/07/2022,06:12:53,0.140,0.0,0.088,0.002
01/07/2022,06:13:52,0.143,0.0,0.09,0.002
01/07/2022,06:15:01,0.146,0.0,0.093,0.003
01/07/2022,06:16:53,0.151,0.0,0.098,0.005
01/07/2022,06:17:53,0.152,0.0,0.1,0.002
01/07/2022,06:18:53,0.143,0.0,0.103,0.003
01/07/2022,06:19:53,0.146,0.0,0.105,0.002
01/07/2022,06:20:52,0.160,0.0,0.108,0.003
01/07/2022,06:21:52,0.165,0.0,0.11,0.002
01/07/2022,06:22:53,0.167,0.0,0.113,0.003
01/07/2022,06:23:53,0.173,0.0,0.116,0.003
01/07/2022,06:25:01,0.176,0.0,0.119,0.003
01/07/2022,06:25:53,0.179,0.0,0.122,0.003
01/07/2022,06:26:52,0.182,0.0,0.125,0.003
01/07/2022,06:27:52,0.186,0.0,0.128,0.003
01/07/2022,06:28:53,0.190,0.0,0.131,0.003
01/07/2022,06:29:53,0.188,0.0,0.134,0.003
01/07/2022,06:30:53,0.182,0.0,0.137,0.003
01/07/2022,06:31:52,0.201,0.0,0.141,0.004
01/07/2022,06:32:53,0.201,0.0,0.144,0.003
01/07/2022,06:33:53,0.206,0.0,0.147,0.003
01/07/2022,06:34:53,0.210,0.0,0.151,0.004
01/07/2022,06:35:53,0.212,0.0,0.154,0.003
01/07/2022,06:36:53,0.216,0.0,0.158,0.004
01/07/2022,06:37:52,0.214,0.0,0.162,0.004
01/07/2022,06:38:53,0.203,0.0,0.165,0.003
01/07/2022,06:39:53,0.190,0.0,0.168,0.003
01/07/2022,06:40:53,0.189,0.0,0.172,0.004
01/07/2022,06:41:52,0.192,0.0,0.175,0.003
01/07/2022,06:42:53,0.160,0.0,0.178,0.003
01/07/2022,06:43:53,0.188,0.0,0.181,0.003
01/07/2022,06:44:53,0.152,0.0,0.183,0.002
01/07/2022,06:45:54,0.197,0.0,0.186,0.003
01/07/2022,06:46:53,0.201,0.0,0.19,0.004
01/07/2022,06:48:02,0.220,1.0,0.194,0.004
01/07/2022,06:49:01,0.209,0.0,0.197,0.003
01/07/2022,06:49:53,0.215,0.0,0.2,0.003
01/07/2022,06:50:53,0.230,1.0,0.204,0.004
01/07/2022,06:51:53,0.230,1.0,0.208,0.004
01/07/2022,06:52:52,0.238,1.0,0.211,0.003
01/07/2022,06:53:53,0.242,1.0,0.216,0.005
01/07/2022,06:54:53,0.287,1.0,0.22,0.004
01/07/2022,06:55:54,0.278,1.0,0.225,0.005
01/07/2022,06:56:53,0.300,1.0,0.229,0.004
01/07/2022,06:57:52,0.306,1.0,0.234,0.005
01/07/2022,06:59:01,0.313,1.0,0.24,0.006
01/07/2022,06:59:52,0.319,1.0,0.245,0.005
01/07/2022,07:00:53,0.323,1.0,0.25,0.005
01/07/2022,07:02:01,0.329,1.0,0.256,0.006
01/07/2022,07:03:54,0.335,1.0,0.267,0.011
01/07/2022,07:05:01,0.347,1.0,0.273,0.006
01/07/2022,07:05:52,0.349,1.0,0.278,0.005
01/07/2022,07:06:53,0.351,1.0,0.284,0.006
01/07/2022,07:08:01,0.364,1.0,0.291,0.007
01/07/2022,07:08:52,0.370,1.0,0.296,0.005
01/07/2022,07:09:53,0.374,1.0,0.302,0.006
01/07/2022,07:10:53,0.370,1.0,0.308,0.006
01/07/2022,07:11:53,0.349,1.0,0.314,0.006
01/07/2022,07:12:53,0.312,1.0,0.32,0.006
01/07/2022,07:13:52,0.326,1.0,0.325,0.005
01/07/2022,07:14:53,0.374,1.0,0.331,0.006
01/07/2022,07:15:53,0.303,1.0,0.336,0.005
01/07/2022,07:16:53,0.306,1.0,0.341,0.005
01/07/2022,07:18:01,0.317,1.0,0.347,0.006
01/07/2022,07:18:52,0.365,1.0,0.352,0.005
01/07/2022,07:19:53,0.359,1.0,0.358,0.006
01/07/2022,07:20:52,0.384,1.0,0.365,0.007
01/07/2022,07:21:47,0.398,1.0,0.371,0.006
01/07/2022,07:22:54,0.442,1.0,0.379,0.008
01/07/2022,07:23:53,0.451,1.0,0.386,0.007
01/07/2022,07:24:53,0.450,1.0,0.393,0.007
01/07/2022,07:25:53,0.432,1.0,0.4,0.007
01/07/2022,07:26:53,0.469,1.0,0.408,0.008
01/07/2022,07:28:02,0.481,1.0,0.417,0.009
01/07/2022,07:28:53,0.486,1.0,0.424,0.007
01/07/2022,07:29:53,0.492,1.0,0.432,0.008
01/07/2022,07:30:53,0.487,1.0,0.441,0.009
01/07/2022,07:31:52,0.507,1.0,0.449,0.008
01/07/2022,07:32:53,0.513,1.0,0.457,0.008
01/07/2022,07:33:53,0.518,1.0,0.466,0.009
01/07/2022,07:34:53,0.528,1.0,0.475,0.009
01/07/2022,07:35:52,0.536,1.0,0.483,0.008
01/07/2022,07:36:53,0.540,1.0,0.493,0.01
01/07/2022,07:37:53,0.543,1.0,0.501,0.008
01/07/2022,07:38:53,0.551,1.0,0.511,0.01
01/07/2022,07:39:53,0.561,1.0,0.52,0.009
01/07/2022,07:40:53,0.560,1.0,0.529,0.009
01/07/2022,07:41:53,0.570,1.0,0.539,0.01
01/07/2022,07:42:53,0.576,1.0,0.548,0.009
01/07/2022,07:43:53,0.576,1.0,0.558,0.01
01/07/2022,07:44:53,0.460,1.0,0.567,0.009
01/07/2022,07:45:53,0.410,1.0,0.575,0.008
01/07/2022,07:46:53,0.409,1.0,0.581,0.006
01/07/2022,07:47:53,0.426,1.0,0.588,0.007
01/07/2022,07:48:53,0.439,1.0,0.595,0.007
01/07/2022,07:49:53,0.455,1.0,0.603,0.008
01/07/2022,07:50:53,0.634,1.0,0.611,0.008
01/07/2022,07:51:53,0.488,1.0,0.621,0.01
01/07/2022,07:52:53,0.660,2.0,0.63,0.009
01/07/2022,07:53:53,0.544,1.0,0.64,0.01
01/07/2022,07:54:53,0.509,1.0,0.649,0.009
01/07/2022,07:55:53,0.693,2.0,0.659,0.01
01/07/2022,07:56:53,0.558,1.0,0.67,0.011
01/07/2022,07:57:52,0.456,1.0,0.679,0.009
01/07/2022,07:58:53,0.506,1.0,0.688,0.009
01/07/2022,07:59:53,0.584,1.0,0.697,0.009
01/07/2022,08:00:53,0.506,1.0,0.706,0.009
01/07/2022,08:01:52,0.572,1.0,0.715,0.009
01/07/2022,08:02:54,0.651,1.0,0.727,0.012
01/07/2022,08:03:53,0.736,2.0,0.738,0.011
01/07/2022,08:04:53,0.511,1.0,0.749,0.011
01/07/2022,08:05:53,0.518,1.0,0.757,0.008
01/07/2022,08:06:53,0.525,1.0,0.766,0.009
01/07/2022,08:07:53,0.721,2.0,0.777,0.011
01/07/2022,08:08:53,0.717,2.0,0.789,0.012
01/07/2022,08:09:53,0.652,1.0,0.801,0.012
01/07/2022,08:10:53,0.768,2.0,0.813,0.012
01/07/2022,08:11:53,0.679,2.0,0.826,0.013
01/07/2022,08:12:53,0.741,2.0,0.838,0.012
01/07/2022,08:13:53,0.628,1.0,0.85,0.012
01/07/2022,08:14:53,0.835,2.0,0.863,0.013
01/07/2022,08:15:53,0.690,2.0,0.875,0.012
01/07/2022,08:16:53,0.646,1.0,0.886,0.011
01/07/2022,08:18:01,0.622,1.0,0.898,0.012
01/07/2022,08:18:55,0.604,1.0,0.907,0.009
01/07/2022,08:19:53,0.587,1.0,0.917,0.01
01/07/2022,08:20:53,0.553,1.0,0.926,0.009
01/07/2022,08:21:53,0.541,1.0,0.935,0.009
01/07/2022,08:22:53,0.554,1.0,0.945,0.01
01/07/2022,08:23:53,0.585,1.0,0.954,0.009
01/07/2022,08:24:53,0.620,1.0,0.964,0.01
01/07/2022,08:25:53,0.650,1.0,0.975,0.011
01/07/2022,08:26:53,0.669,2.0,0.986,0.011
01/07/2022,08:27:53,0.683,2.0,0.997,0.011
01/07/2022,08:28:53,0.658,2.0,1.008,0.011
01/07/2022,08:29:54,0.662,2.0,1.019,0.011
01/07/2022,08:31:01,0.660,2.0,1.031,0.012
01/07/2022,08:31:53,0.657,2.0,1.041,0.01
01/07/2022,08:32:53,0.666,2.0,1.052,0.011
01/07/2022,08:33:53,0.690,2.0,1.063,0.011
01/07/2022,08:34:52,0.706,2.0,1.075,0.012
01/07/2022,08:35:53,0.622,1.0,1.086,0.011
01/07/2022,08:37:01,0.568,1.0,1.097,0.011
01/07/2022,08:37:53,0.516,1.0,1.105,0.008
01/07/2022,08:38:53,0.529,1.0,1.114,0.009
01/07/2022,08:39:53,0.580,1.0,1.123,0.009
01/07/2022,08:40:53,0.636,1.0,1.133,0.01
01/07/2022,08:41:53,0.700,2.0,1.144,0.011
01/07/2022,08:42:54,0.769,2.0,1.157,0.013
01/07/2022,08:43:53,0.822,2.0,1.17,0.013
01/07/2022,08:44:53,0.837,2.0,1.184,0.014
01/07/2022,08:45:53,0.843,2.0,1.198,0.014
01/07/2022,08:46:53,0.867,2.0,1.213,0.015
01/07/2022,08:47:53,0.884,2.0,1.227,0.014
01/07/2022,08:48:53,0.899,2.0,1.241,0.014
01/07/2022,08:49:53,0.945,2.0,1.258,0.017
01/07/2022,08:50:53,0.978,2.0,1.273,0.015
01/07/2022,08:51:53,0.981,2.0,1.29,0.017
01/07/2022,08:53:02,1.079,2.0,1.31,0.02
01/07/2022,08:53:53,0.957,2.0,1.323,0.013
01/07/2022,08:54:53,1.005,2.0,1.34,0.017
01/07/2022,08:55:53,1.053,2.0,1.356,0.016
01/07/2022,08:56:53,0.895,2.0,1.372,0.016
01/07/2022,08:57:53,0.893,2.0,1.387,0.015
01/07/2022,08:58:53,0.896,2.0,1.402,0.015
01/07/2022,08:59:53,0.911,2.0,1.418,0.016
01/07/2022,09:00:53,0.937,2.0,1.433,0.015
01/07/2022,09:01:44,0.898,2.0,1.446,0.013
01/07/2022,09:02:54,0.904,2.0,1.463,0.017
01/07/2022,09:03:53,0.921,2.0,1.478,0.015
01/07/2022,09:05:01,0.905,2.0,1.496,0.018
01/07/2022,09:05:53,0.880,2.0,1.509,0.013
01/07/2022,09:06:53,0.889,2.0,1.524,0.015
01/07/2022,09:07:53,0.908,2.0,1.538,0.014
01/07/2022,09:08:53,0.917,2.0,1.554,0.016
01/07/2022,09:09:53,0.884,2.0,1.569,0.015
01/07/2022,09:10:53,0.759,2.0,1.583,0.014
01/07/2022,09:11:53,0.706,2.0,1.595,0.012
01/07/2022,09:12:53,0.737,2.0,1.607,0.012
01/07/2022,09:13:53,0.829,2.0,1.62,0.013
01/07/2022,09:14:53,0.929,2.0,1.634,0.014
01/07/2022,09:15:53,1.001,2.0,1.651,0.017
01/07/2022,09:16:53,1.403,3.0,1.673,0.022
01/07/2022,09:17:53,1.378,3.0,1.695,0.022
01/07/2022,09:18:54,1.454,3.0,1.714,0.019
01/07/2022,09:20:09,0.827,2.0,1.733,0.019
01/07/2022,09:21:54,0.733,2.0,1.756,0.023
01/07/2022,09:22:53,0.751,2.0,1.768,0.012
01/07/2022,09:23:54,0.861,2.0,1.782,0.014
01/07/2022,09:24:53,0.981,2.0,1.797,0.015
01/07/2022,09:25:54,1.460,3.0,1.816,0.019
01/07/2022,09:26:53,1.221,3.0,1.836,0.02
01/07/2022,09:27:53,1.021,2.0,1.854,0.018
01/07/2022,09:28:53,0.950,2.0,1.87,0.016
01/07/2022,09:29:53,0.859,2.0,1.885,0.015
01/07/2022,09:30:53,1.105,3.0,1.901,0.016
01/07/2022,09:31:53,0.847,2.0,1.916,0.015
01/07/2022,09:32:53,0.914,2.0,1.93,0.014
01/07/2022,09:33:54,1.395,3.0,1.948,0.018
01/07/2022,09:34:53,0.943,2.0,1.964,0.016
01/07/2022,09:35:53,0.870,2.0,1.979,0.015
01/07/2022,09:36:53,1.074,2.0,1.994,0.015
01/07/2022,09:37:53,1.184,3.0,2.015,0.021
01/07/2022,09:38:53,1.363,3.0,2.035,0.02
01/07/2022,09:39:53,1.148,3.0,2.059,0.024
01/07/2022,09:40:56,1.047,2.0,2.078,0.019
01/07/2022,09:41:53,1.698,4.0,2.103,0.025
01/07/2022,09:42:53,1.530,4.0,2.13,0.027
01/07/2022,09:43:54,1.521,3.0,2.156,0.026
01/07/2022,09:44:53,1.047,2.0,2.18,0.024
01/07/2022,09:46:02,0.780,2.0,2.196,0.016
01/07/2022,09:47:10,0.812,2.0,2.211,0.015
01/07/2022,09:48:54,1.285,3.0,2.237,0.026
01/07/2022,09:49:40,1.494,3.0,2.255,0.018
01/07/2022,09:50:53,1.066,2.0,2.281,0.026
01/07/2022,09:51:53,1.613,4.0,2.3,0.019
01/07/2022,09:52:53,1.379,3.0,2.323,0.023
01/07/2022,09:53:53,1.220,3.0,2.346,0.023
01/07/2022,09:54:53,1.259,3.0,2.369,0.023
01/07/2022,09:55:53,1.089,3.0,2.39,0.021
01/07/2022,09:56:53,1.099,3.0,2.409,0.019
01/07/2022,09:57:53,1.469,3.0,2.429,0.02
01/07/2022,09:58:54,1.008,2.0,2.452,0.023
01/07/2022,09:59:53,1.010,2.0,2.468,0.016
01/07/2022,10:00:54,1.050,2.0,2.486,0.018
01/07/2022,10:01:53,1.086,2.0,2.504,0.018
01/07/2022,10:02:53,1.270,3.0,2.522,0.018
01/07/2022,10:04:02,1.218,3.0,2.549,0.027
01/07/2022,10:04:53,1.549,4.0,2.571,0.022
01/07/2022,10:05:54,1.587,4.0,2.598,0.027
01/07/2022,10:06:53,1.352,3.0,2.625,0.027
01/07/2022,10:07:53,1.374,3.0,2.653,0.028
01/07/2022,10:08:54,1.446,3.0,2.675,0.022
01/07/2022,10:09:53,1.494,3.0,2.699,0.024
01/07/2022,10:10:53,1.575,4.0,2.725,0.026